Volver al catálogo

STARLINK-35614

ActivoComunicacionesVLEO
NORAD 66164·PAYLOAD·🇺🇸 United States

Lanzado Oct 25, 2025 desde Cape Canaveral Space Force Station

Loading…

Próximos Pases (próximas 24 horas)

TLE

ActualizadoSource: CelesTrak SupGP

Época: Sep 15, 2026, 03:58 UTC

1 66164C 25240U   26258.16576389 -.00043736  00000+0 -12920-2 0  2582
2 66164  53.1572 258.7256 0001205  94.7275 286.3478 15.34416527    12

Sigue STARLINK-35614 en tiempo real con AllMySat

Download on the App Store